Regional Weather Roundup
Issued by NWS Goodland, KS

Home | Current Version | Previous Version | Graphics & Text | Print | Product List | Glossary On
Versions: 1 2 3 4 5 6 7 8 9 10 11 12 13 14 15 16 17 18 19 20 21 22 23 24 25 26 27 28 29 30 31 32 33 34 35 36 37 38 39 40 41 42 43 44 45 46 47 48 49 50
000
ASUS43 KGLD 030959
RWRGLD

GOODLAND FORECAST AREA HOURLY WEATHER ROUNDUP
NATIONAL WEATHER SERVICE GOODLAND KS
400 AM MDT FRI JUL 03 2015

...OFFICIAL OBSERVATIONS...

CITY           SKY/WX    TMP DP  RH WIND       PRES   REMARKS
GOODLAND KS    PTCLDY    58  55  90 CALM      30.08F
HILL CITY KS   CLEAR     61  59  93 VRB3      30.01S
IMPERIAL NEB   PTCLDY    62  57  83 NW5       30.08R
MCCOOK NEB     PTCLDY    61  58  90 W5        30.04S
AKRON CO       MOCLDY    60  58  92 S9        30.14F
BURLINGTON CO  PTCLDY    61  58  90 W9        30.13S
LIMON CO       CLEAR     54  53  97 NW3       30.19S
$$

...UNOFFICIAL OBSERVATIONS...

CITY           SKY/WX    TMP DP  RH WIND       PRES   REMARKS
COLBY KS       CLEAR     61  59  94 NW7       30.07F
GOVE KS          N/A     60  32  34 MISG        N/A
NORTON KS      CLEAR     57  55  94 N5        30.01F FOG
SHARON SPRINGS   N/A     64  58  81 NE5         N/A
$$


USA.gov is the U.S. government's official web portal to all federal, state and local government web resources and services.